GATOR02 KJAX-KJAX

Flight info

Callsign GATOR02
Flight time 1h 37m
Altitude 26000
Route CRG V267 ORL V531 SABOT T347 ODDEL D0030 HALLR D0015 MCF VAYPO V441 OCF T211 CRG
Aircraft F35/M-DILORT/L

Departure

Time 2026-05-03 21:09
Airport Jacksonville International Airport (KJAX)

Arrival

Time 2026-05-03 22:47
Airport Jacksonville International Airport (KJAX)
Time Latitude Longitude Altitude Speed Heading
2026-05-03 20:55 30.48887 -81.70163 39 ft 0 kts 113°
2026-05-03 21:07 30.48907 -81.70163 39 ft 10 kts 326°
2026-05-03 21:08 30.48989 -81.70207 39 ft 16 kts
2026-05-03 21:08 30.49078 -81.70162 39 ft 13 kts 26°
2026-05-03 21:08 30.49156 -81.70116 38 ft 13 kts 27°
2026-05-03 21:08 30.49172 -81.70045 37 ft 1 kts 131°
2026-05-03 21:09 30.49149 -81.70014 37 ft 7 kts 130°
2026-05-03 21:09 30.48881 -81.69643 36 ft 165 kts 130°
2026-05-03 21:09 30.47724 -81.68034 277 ft 341 kts 130°
2026-05-03 21:09 30.45653 -81.66762 729 ft 323 kts 163°
2026-05-03 21:10 30.43500 -81.66094 1466 ft 349 kts 163°
2026-05-03 21:10 30.40922 -81.65269 2412 ft 376 kts 162°
2026-05-03 21:10 30.38567 -81.64420 3247 ft 348 kts 161°
2026-05-03 21:10 30.36138 -81.63645 4172 ft 401 kts 163°
2026-05-03 21:11 30.33588 -81.62767 5132 ft 378 kts 163°
2026-05-03 21:11 30.31044 -81.61912 5955 ft 385 kts 165°
2026-05-03 21:11 30.28425 -81.60995 6905 ft 394 kts 165°
2026-05-03 21:11 30.25768 -81.60063 7893 ft 402 kts 165°
2026-05-03 21:12 30.23104 -81.59124 8928 ft 404 kts 165°
2026-05-03 21:12 30.20254 -81.58129 10154 ft 461 kts 165°
2026-05-03 21:12 30.16922 -81.56991 11605 ft 536 kts 166°
2026-05-03 21:12 30.13295 -81.55769 13324 ft 506 kts 167°
2026-05-03 21:13 30.10423 -81.54908 14522 ft 366 kts 185°
2026-05-03 21:13 30.08131 -81.54731 15460 ft 306 kts 155°
2026-05-03 21:13 30.06936 -81.52918 14722 ft 267 kts 167°
2026-05-03 21:13 30.04920 -81.52272 14340 ft 330 kts 172°
2026-05-03 21:14 30.02416 -81.51369 14238 ft 439 kts 165°
2026-05-03 21:14 29.99158 -81.49970 14373 ft 540 kts 162°
2026-05-03 21:14 29.95707 -81.48238 14574 ft 525 kts 158°
2026-05-03 21:14 29.92609 -81.46526 14907 ft 470 kts 161°
2026-05-03 21:15 29.89488 -81.45135 15017 ft 454 kts 166°
2026-05-03 21:15 29.86614 -81.44098 14955 ft 429 kts 168°
2026-05-03 21:15 29.83789 -81.43101 15003 ft 421 kts 169°
2026-05-03 21:15 29.80913 -81.42348 14953 ft 438 kts 175°
2026-05-03 21:16 29.77851 -81.41753 14987 ft 449 kts 176°
2026-05-03 21:16 29.74760 -81.41208 14984 ft 447 kts 176°
2026-05-03 21:16 29.71675 -81.40678 14985 ft 442 kts 177°
2026-05-03 21:16 29.68627 -81.40281 14958 ft 438 kts 179°
2026-05-03 21:17 29.65659 -81.39921 14892 ft 421 kts 179°
2026-05-03 21:17 29.63716 -81.39694 14875 ft 419 kts 180°
2026-05-03 21:17 29.59794 -81.39285 14847 ft 425 kts 180°
2026-05-03 21:17 29.56797 -81.38979 14888 ft 440 kts 180°
2026-05-03 21:18 29.53809 -81.38680 16239 ft 425 kts 180°
2026-05-03 21:18 29.50893 -81.38446 18045 ft 422 kts 181°
2026-05-03 21:18 29.47879 -81.38183 19866 ft 440 kts 181°
2026-05-03 21:18 29.44754 -81.37916 21866 ft 460 kts 182°
2026-05-03 21:19 29.41513 -81.37656 24028 ft 473 kts 183°
2026-05-03 21:19 29.38173 -81.37409 25961 ft 494 kts 183°
2026-05-03 21:19 29.34632 -81.37177 26110 ft 512 kts 183°
2026-05-03 21:19 29.31208 -81.36947 26052 ft 475 kts 184°
2026-05-03 21:20 29.27981 -81.36768 25928 ft 459 kts 185°
2026-05-03 21:20 29.24789 -81.36593 25849 ft 458 kts 184°
2026-05-03 21:20 29.21610 -81.36552 25947 ft 463 kts 188°
2026-05-03 21:20 29.18325 -81.36634 26084 ft 478 kts 188°
2026-05-03 21:21 29.14966 -81.36778 26027 ft 484 kts 189°
2026-05-03 21:21 29.11591 -81.36930 26032 ft 482 kts 189°
2026-05-03 21:21 29.08275 -81.37120 26006 ft 483 kts 189°
2026-05-03 21:21 29.04872 -81.37326 25981 ft 482 kts 190°
2026-05-03 21:22 29.01530 -81.37579 25962 ft 480 kts 190°
2026-05-03 21:22 28.98153 -81.37728 26022 ft 491 kts 184°
2026-05-03 21:22 28.94777 -81.37404 25937 ft 485 kts 182°
2026-05-03 21:22 28.91453 -81.37140 25870 ft 484 kts 183°
2026-05-03 21:23 28.88086 -81.36878 25809 ft 487 kts 183°
2026-05-03 21:23 28.84717 -81.36616 25851 ft 483 kts 183°
2026-05-03 21:23 28.81369 -81.36199 25876 ft 486 kts 178°
2026-05-03 21:23 28.78019 -81.35563 25902 ft 485 kts 178°
2026-05-03 21:24 28.74688 -81.35034 26031 ft 490 kts 179°
2026-05-03 21:24 28.71284 -81.34477 25949 ft 496 kts 179°
2026-05-03 21:24 28.67867 -81.33997 25932 ft 491 kts 181°
2026-05-03 21:24 28.64407 -81.33616 25932 ft 490 kts 182°
2026-05-03 21:25 28.61005 -81.33340 25969 ft 490 kts 183°
2026-05-03 21:25 28.57609 -81.33098 26025 ft 492 kts 184°
2026-05-03 21:25 28.54212 -81.32891 25992 ft 492 kts 184°
2026-05-03 21:25 28.50802 -81.32446 26052 ft 499 kts 175°
2026-05-03 21:26 28.47413 -81.31558 25962 ft 502 kts 173°
2026-05-03 21:26 28.44015 -81.30536 25920 ft 505 kts 172°
2026-05-03 21:26 28.40618 -81.29472 25903 ft 506 kts 170°
2026-05-03 21:26 28.37251 -81.28255 25886 ft 508 kts 168°
2026-05-03 21:27 28.33923 -81.26999 25943 ft 506 kts 169°
2026-05-03 21:27 28.30576 -81.25743 25962 ft 504 kts 169°
2026-05-03 21:27 28.27250 -81.24472 25985 ft 507 kts 168°
2026-05-03 21:27 28.23939 -81.23142 26009 ft 507 kts 167°
2026-05-03 21:28 28.20643 -81.21766 25999 ft 503 kts 167°
2026-05-03 21:28 28.17344 -81.20400 25996 ft 505 kts 167°
2026-05-03 21:28 28.14052 -81.19025 25949 ft 505 kts 167°
2026-05-03 21:28 28.10748 -81.17647 25923 ft 506 kts 167°
2026-05-03 21:29 28.07449 -81.16301 25851 ft 506 kts 168°
2026-05-03 21:29 28.04131 -81.14980 25823 ft 504 kts 168°
2026-05-03 21:29 28.00802 -81.14044 25862 ft 482 kts 184°
2026-05-03 21:29 27.98642 -81.14154 26104 ft 458 kts 196°
2026-05-03 21:30 27.95625 -81.15334 25933 ft 455 kts 214°
2026-05-03 21:30 27.93071 -81.17442 25234 ft 445 kts 220°
2026-05-03 21:30 27.91002 -81.19324 22665 ft 393 kts 223°
2026-05-03 21:30 27.88729 -81.21399 19425 ft 435 kts 222°
2026-05-03 21:31 27.86302 -81.23621 15703 ft 460 kts 221°
2026-05-03 21:31 27.83514 -81.25431 11480 ft 472 kts 207°
2026-05-03 21:31 27.80331 -81.26512 7129 ft 487 kts 189°
2026-05-03 21:31 27.76948 -81.26700 2860 ft 501 kts 177°
2026-05-03 21:32 27.73614 -81.26580 2296 ft 476 kts 177°
2026-05-03 21:32 27.70224 -81.26515 2518 ft 472 kts 176°
2026-05-03 21:32 27.67460 -81.26455 2408 ft 355 kts 178°
2026-05-03 21:32 27.65088 -81.26527 2380 ft 331 kts 187°
2026-05-03 21:33 27.63016 -81.27565 2380 ft 351 kts 221°
2026-05-03 21:33 27.61614 -81.30159 2245 ft 409 kts 258°
2026-05-03 21:33 27.61732 -81.33226 2035 ft 387 kts 290°
2026-05-03 21:33 27.63156 -81.35675 2495 ft 426 kts 317°
2026-05-03 21:34 27.66004 -81.37405 2632 ft 500 kts 352°
2026-05-03 21:34 27.69101 -81.36916 2549 ft 422 kts 18°
2026-05-03 21:34 27.71770 -81.35971 2765 ft 385 kts 18°
2026-05-03 21:34 27.74249 -81.36412 2897 ft 379 kts 351°
2026-05-03 21:35 27.77066 -81.36997 2854 ft 436 kts 351°
2026-05-03 21:35 27.80178 -81.37590 2864 ft 462 kts
2026-05-03 21:35 27.82276 -81.35727 2776 ft 384 kts 82°
2026-05-03 21:35 27.80680 -81.33661 2536 ft 419 kts 163°
2026-05-03 21:36 27.77771 -81.33460 2397 ft 426 kts 179°
2026-05-03 21:36 27.74780 -81.33394 2385 ft 421 kts 154°
2026-05-03 21:36 27.72151 -81.32608 2616 ft 380 kts 172°
2026-05-03 21:36 27.69636 -81.32083 1599 ft 371 kts 158°
2026-05-03 21:37 27.68169 -81.30366 2059 ft 357 kts 64°
2026-05-03 21:37 27.70415 -81.29085 2167 ft 427 kts 347°
2026-05-03 21:37 27.73046 -81.30905 2359 ft 447 kts 326°
2026-05-03 21:37 27.72755 -81.33605 2798 ft 344 kts 212°
2026-05-03 21:38 27.70433 -81.32915 1595 ft 422 kts 147°
2026-05-03 21:38 27.68363 -81.30968 2562 ft 329 kts 96°
2026-05-03 21:38 27.69297 -81.28460 2754 ft 368 kts 24°
2026-05-03 21:38 27.71638 -81.29724 2853 ft 439 kts 324°
2026-05-03 21:39 27.72692 -81.32217 3157 ft 382 kts 242°
2026-05-03 21:39 27.70511 -81.33069 1943 ft 403 kts 144°
2026-05-03 21:39 27.68637 -81.30818 2098 ft 423 kts 85°
2026-05-03 21:39 27.70402 -81.28444 2370 ft 392 kts 348°
2026-05-03 21:40 27.72458 -81.30013 2601 ft 344 kts 309°
2026-05-03 21:40 27.71773 -81.32656 2376 ft 432 kts 230°
2026-05-03 21:40 27.69525 -81.32434 1256 ft 390 kts 135°
2026-05-03 21:40 27.69256 -81.29756 2763 ft 395 kts 55°
2026-05-03 21:41 27.71391 -81.29667 2934 ft 361 kts 317°
2026-05-03 21:41 27.72319 -81.31983 3011 ft 374 kts 244°
2026-05-03 21:41 27.70396 -81.33271 2309 ft 321 kts 135°
2026-05-03 21:41 27.68579 -81.31454 1524 ft 337 kts 106°
2026-05-03 21:42 27.69053 -81.28665 1839 ft 416 kts 58°
2026-05-03 21:42 27.71419 -81.28378 2151 ft 420 kts 321°
2026-05-03 21:42 27.73109 -81.30861 2605 ft 421 kts 267°
2026-05-03 21:42 27.71361 -81.33731 2597 ft 448 kts 192°
2026-05-03 21:43 27.69171 -81.32107 1593 ft 379 kts 131°
2026-05-03 21:43 27.69504 -81.29281 2685 ft 436 kts 36°
2026-05-03 21:43 27.71995 -81.30415 2955 ft 411 kts 323°
2026-05-03 21:43 27.72115 -81.32952 2960 ft 355 kts 232°
2026-05-03 21:44 27.70068 -81.33119 2336 ft 359 kts 136°
2026-05-03 21:44 27.67642 -81.31408 2091 ft 475 kts 162°
2026-05-03 21:44 27.64352 -81.30539 2238 ft 480 kts 179°
2026-05-03 21:44 27.61438 -81.31957 2144 ft 460 kts 230°
2026-05-03 21:45 27.59770 -81.34425 2137 ft 344 kts 233°
2026-05-03 21:45 27.58765 -81.36609 2457 ft 282 kts 268°
2026-05-03 21:45 27.59610 -81.38474 1937 ft 297 kts 336°
2026-05-03 21:45 27.61655 -81.38467 1633 ft 300 kts 31°
2026-05-03 21:46 27.62821 -81.36908 802 ft 236 kts 56°
2026-05-03 21:46 27.63737 -81.35595 288 ft 193 kts 50°
2026-05-03 21:46 27.64523 -81.34508 159 ft 214 kts 50°
2026-05-03 21:46 27.65486 -81.32749 630 ft 295 kts 105°
2026-05-03 21:47 27.63659 -81.32577 1284 ft 346 kts 223°
2026-05-03 21:47 27.62115 -81.34462 1431 ft 268 kts 237°
2026-05-03 21:47 27.62249 -81.36017 569 ft 195 kts 329°
2026-05-03 21:47 27.63411 -81.35993 367 ft 184 kts 43°
2026-05-03 21:48 27.64189 -81.34966 124 ft 181 kts 50°
2026-05-03 21:48 27.65376 -81.33303 396 ft 339 kts 66°
2026-05-03 21:48 27.64110 -81.31935 1403 ft 362 kts 216°
2026-05-03 21:48 27.64516 -81.34403 1768 ft 432 kts 311°
2026-05-03 21:49 27.65232 -81.36509 2008 ft 242 kts 234°
2026-05-03 21:49 27.63725 -81.38348 1558 ft 389 kts 221°
2026-05-03 21:49 27.61319 -81.40481 2456 ft 485 kts 216°
2026-05-03 21:49 27.58759 -81.42785 3742 ft 410 kts 235°
2026-05-03 21:50 27.58020 -81.45450 3246 ft 339 kts 268°
2026-05-03 21:50 27.58068 -81.47997 3034 ft 341 kts 274°
2026-05-03 21:50 27.58113 -81.50889 4348 ft 388 kts 271°
2026-05-03 21:50 27.58199 -81.54156 5998 ft 439 kts 271°
2026-05-03 21:51 27.58288 -81.57482 6599 ft 394 kts 272°
2026-05-03 21:51 27.58411 -81.60515 6634 ft 378 kts 272°
2026-05-03 21:51 27.58543 -81.63435 6934 ft 365 kts 272°
2026-05-03 21:51 27.58678 -81.66273 7059 ft 366 kts 272°
2026-05-03 21:52 27.58835 -81.69185 7010 ft 377 kts 274°
2026-05-03 21:52 27.59066 -81.72271 6934 ft 413 kts 274°
2026-05-03 21:52 27.59270 -81.75494 6878 ft 415 kts 274°
2026-05-03 21:52 27.59629 -81.78729 6727 ft 419 kts 281°
2026-05-03 21:53 27.60402 -81.81853 6509 ft 421 kts 290°
2026-05-03 21:53 27.61714 -81.84823 6404 ft 418 kts 302°
2026-05-03 21:53 27.63408 -81.87486 6147 ft 409 kts 308°
2026-05-03 21:53 27.65260 -81.89832 5791 ft 386 kts 312°
2026-05-03 21:54 27.67105 -81.91928 5417 ft 366 kts 315°
2026-05-03 21:54 27.68905 -81.93882 5023 ft 352 kts 316°
2026-05-03 21:54 27.70641 -81.95719 4639 ft 336 kts 318°
2026-05-03 21:54 27.72343 -81.97467 4211 ft 325 kts 320°
2026-05-03 21:55 27.73996 -81.99115 3787 ft 319 kts 321°
2026-05-03 21:55 27.75685 -82.00795 3337 ft 318 kts 321°
2026-05-03 21:55 27.77325 -82.02438 2976 ft 314 kts 321°
2026-05-03 21:55 27.78943 -82.04078 2913 ft 320 kts 320°
2026-05-03 21:56 27.80616 -82.05844 2899 ft 331 kts 317°
2026-05-03 21:56 27.82185 -82.07727 2879 ft 327 kts 314°
2026-05-03 21:56 27.83676 -82.09596 2843 ft 325 kts 314°
2026-05-03 21:56 27.85185 -82.11482 2784 ft 326 kts 314°
2026-05-03 21:57 27.86742 -82.13406 2833 ft 332 kts 315°
2026-05-03 21:57 27.88347 -82.15370 2907 ft 338 kts 315°
2026-05-03 21:57 27.90001 -82.17342 2972 ft 348 kts 316°
2026-05-03 21:57 27.91645 -82.19296 2957 ft 340 kts 315°
2026-05-03 21:58 27.93255 -82.21182 2908 ft 330 kts 316°
2026-05-03 21:58 27.94768 -82.23121 2784 ft 325 kts 310°
2026-05-03 21:58 27.96020 -82.25256 2394 ft 329 kts 297°
2026-05-03 21:58 27.96874 -82.27626 2019 ft 327 kts 290°
2026-05-03 21:59 27.97582 -82.30006 1810 ft 306 kts 290°
2026-05-03 21:59 27.97842 -82.32277 1632 ft 286 kts 266°
2026-05-03 21:59 27.97532 -82.34378 1628 ft 267 kts 261°
2026-05-03 21:59 27.97166 -82.36419 1591 ft 263 kts 260°
2026-05-03 22:00 27.96794 -82.38427 1606 ft 257 kts 260°
2026-05-03 22:00 27.96369 -82.40428 1571 ft 263 kts 244°
2026-05-03 22:00 27.95018 -82.41700 1619 ft 258 kts 205°
2026-05-03 22:00 27.93709 -82.42802 1413 ft 217 kts 219°
2026-05-03 22:01 27.92682 -82.44004 1424 ft 213 kts 228°
2026-05-03 22:01 27.91708 -82.45217 1472 ft 205 kts 224°
2026-05-03 22:01 27.90719 -82.46289 1098 ft 190 kts 219°
2026-05-03 22:01 27.89665 -82.47340 887 ft 214 kts 224°
2026-05-03 22:02 27.88678 -82.48389 692 ft 191 kts 222°
2026-05-03 22:02 27.87694 -82.49448 488 ft 200 kts 223°
2026-05-03 22:02 27.86651 -82.50573 389 ft 209 kts 222°
2026-05-03 22:02 27.85494 -82.51750 413 ft 284 kts 220°
2026-05-03 22:03 27.83435 -82.53648 790 ft 424 kts 216°
2026-05-03 22:03 27.81347 -82.55538 1026 ft 368 kts 219°
2026-05-03 22:03 27.79456 -82.57381 2430 ft 351 kts 225°
2026-05-03 22:03 27.77843 -82.59701 4304 ft 410 kts 239°
2026-05-03 22:04 27.76660 -82.62778 6241 ft 440 kts 256°
2026-05-03 22:04 27.76348 -82.66379 7719 ft 488 kts 275°
2026-05-03 22:04 27.77228 -82.70145 8310 ft 528 kts 294°
2026-05-03 22:04 27.79097 -82.73357 9521 ft 447 kts 308°
2026-05-03 22:05 27.81261 -82.75731 10618 ft 416 kts 318°
2026-05-03 22:05 27.83638 -82.77395 11395 ft 399 kts 330°
2026-05-03 22:05 27.86276 -82.78437 11523 ft 419 kts 343°
2026-05-03 22:05 27.89146 -82.78634 11855 ft 420 kts
2026-05-03 22:06 27.92058 -82.77879 11918 ft 445 kts 16°
2026-05-03 22:06 27.94920 -82.76509 12014 ft 452 kts 21°
2026-05-03 22:06 27.97783 -82.75016 12155 ft 454 kts 21°
2026-05-03 22:06 28.00712 -82.73521 12235 ft 461 kts 20°
2026-05-03 22:07 28.03629 -82.72083 12085 ft 448 kts 21°
2026-05-03 22:07 28.06438 -82.70581 12009 ft 444 kts 22°
2026-05-03 22:07 28.09224 -82.69086 11926 ft 445 kts 22°
2026-05-03 22:07 28.11997 -82.67599 11853 ft 439 kts 22°
2026-05-03 22:08 28.14732 -82.66084 11878 ft 437 kts 23°
2026-05-03 22:08 28.16513 -82.65076 11847 ft 430 kts 23°
2026-05-03 22:08 28.20082 -82.62964 11790 ft 429 kts 24°
2026-05-03 22:08 28.22732 -82.61382 11739 ft 430 kts 24°
2026-05-03 22:09 28.25386 -82.59759 11768 ft 442 kts 24°
2026-05-03 22:09 28.28230 -82.58294 11860 ft 454 kts 19°
2026-05-03 22:09 28.31201 -82.57111 11947 ft 445 kts 14°
2026-05-03 22:10 28.37118 -82.55255 12566 ft 458 kts 11°
2026-05-03 22:10 28.40191 -82.54370 14639 ft 460 kts
2026-05-03 22:10 28.43399 -82.53481 15831 ft 506 kts
2026-05-03 22:10 28.46881 -82.52537 16121 ft 533 kts
2026-05-03 22:11 28.50569 -82.51706 16059 ft 540 kts
2026-05-03 22:11 28.54242 -82.51081 15987 ft 528 kts
2026-05-03 22:11 28.57893 -82.50497 15911 ft 527 kts
2026-05-03 22:11 28.61495 -82.49918 15912 ft 522 kts
2026-05-03 22:12 28.63885 -82.49535 15973 ft 515 kts
2026-05-03 22:12 28.67452 -82.48959 16048 ft 528 kts
2026-05-03 22:12 28.71091 -82.48450 16129 ft 540 kts
2026-05-03 22:12 28.74792 -82.48040 16116 ft 536 kts
2026-05-03 22:13 28.78461 -82.47389 15978 ft 555 kts 10°
2026-05-03 22:13 28.82080 -82.45992 16005 ft 542 kts 21°
2026-05-03 22:13 28.85371 -82.43864 15929 ft 544 kts 32°
2026-05-03 22:13 28.88458 -82.41306 15996 ft 550 kts 34°
2026-05-03 22:14 28.91503 -82.38727 16007 ft 547 kts 33°
2026-05-03 22:14 28.94560 -82.36184 15741 ft 536 kts 31°
2026-05-03 22:14 28.97618 -82.33976 14623 ft 512 kts 27°
2026-05-03 22:14 29.00684 -82.32157 13653 ft 485 kts 24°
2026-05-03 22:15 29.03666 -82.30394 12601 ft 480 kts 22°
2026-05-03 22:15 29.06597 -82.28733 11503 ft 464 kts 22°
2026-05-03 22:15 29.09464 -82.27171 10863 ft 445 kts 21°
2026-05-03 22:15 29.12314 -82.25663 10956 ft 471 kts 20°
2026-05-03 22:16 29.15445 -82.24107 11010 ft 500 kts 19°
2026-05-03 22:16 29.18607 -82.22564 10988 ft 488 kts 20°
2026-05-03 22:16 29.21688 -82.20981 11022 ft 489 kts 20°
2026-05-03 22:16 29.24819 -82.19419 10988 ft 485 kts 20°
2026-05-03 22:17 29.27921 -82.17853 10979 ft 486 kts 20°
2026-05-03 22:17 29.30998 -82.16302 10995 ft 485 kts 20°
2026-05-03 22:17 29.34088 -82.14735 11001 ft 485 kts 20°
2026-05-03 22:17 29.37140 -82.13187 11013 ft 487 kts 20°
2026-05-03 22:18 29.40248 -82.11613 11038 ft 492 kts 20°
2026-05-03 22:18 29.43328 -82.10101 11045 ft 486 kts 20°
2026-05-03 22:18 29.46478 -82.08551 11051 ft 484 kts 19°
2026-05-03 22:18 29.49620 -82.07054 11042 ft 491 kts 19°
2026-05-03 22:19 29.52766 -82.05557 11045 ft 487 kts 19°
2026-05-03 22:19 29.55938 -82.04048 11041 ft 498 kts 19°
2026-05-03 22:19 29.59069 -82.02556 11051 ft 481 kts 19°
2026-05-03 22:19 29.62060 -82.00826 11009 ft 476 kts 38°
2026-05-03 22:20 29.64164 -81.97728 10825 ft 489 kts 63°
2026-05-03 22:20 29.65457 -81.94082 10961 ft 491 kts 68°
2026-05-03 22:20 29.66554 -81.90411 11030 ft 488 kts 70°
2026-05-03 22:20 29.67602 -81.86675 11037 ft 493 kts 71°
2026-05-03 22:21 29.68658 -81.82927 10997 ft 495 kts 71°
2026-05-03 22:21 29.69776 -81.78951 10970 ft 493 kts 71°
2026-05-03 22:21 29.70756 -81.75471 10936 ft 486 kts 71°
2026-05-03 22:21 29.71786 -81.71807 10891 ft 476 kts 71°
2026-05-03 22:22 29.72824 -81.68116 10841 ft 479 kts 71°
2026-05-03 22:22 29.73872 -81.64390 10775 ft 521 kts 68°
2026-05-03 22:22 29.76103 -81.61176 11008 ft 483 kts 34°
2026-05-03 22:22 29.79304 -81.59838 11112 ft 503 kts 352°
2026-05-03 22:23 29.82704 -81.59905 11081 ft 470 kts 358°
2026-05-03 22:23 29.85965 -81.59787 11046 ft 466 kts 358°
2026-05-03 22:23 29.89233 -81.59651 11018 ft 477 kts 358°
2026-05-03 22:23 29.92580 -81.59632 10997 ft 483 kts 358°
2026-05-03 22:24 29.95750 -81.60593 11033 ft 468 kts 326°
2026-05-03 22:24 29.98616 -81.62334 11070 ft 475 kts 329°
2026-05-03 22:24 30.01519 -81.64143 11073 ft 473 kts 329°
2026-05-03 22:24 30.04425 -81.65928 11112 ft 476 kts 329°
2026-05-03 22:25 30.07329 -81.67698 11085 ft 473 kts 329°
2026-05-03 22:25 30.10249 -81.69439 11024 ft 470 kts 330°
2026-05-03 22:25 30.13173 -81.71154 10971 ft 470 kts 330°
2026-05-03 22:25 30.16053 -81.72851 11006 ft 464 kts 331°
2026-05-03 22:26 30.18960 -81.74511 10997 ft 466 kts 331°
2026-05-03 22:26 30.21867 -81.76132 10993 ft 464 kts 332°
2026-05-03 22:26 30.24930 -81.77262 10936 ft 467 kts 343°
2026-05-03 22:26 30.28055 -81.78169 10956 ft 467 kts 343°
2026-05-03 22:27 30.31167 -81.79029 10747 ft 462 kts 344°
2026-05-03 22:27 30.34196 -81.79822 9263 ft 433 kts 345°
2026-05-03 22:27 30.37085 -81.80540 7515 ft 410 kts 347°
2026-05-03 22:27 30.39849 -81.81165 5872 ft 395 kts 348°
2026-05-03 22:28 30.42488 -81.81794 4297 ft 380 kts 349°
2026-05-03 22:28 30.45063 -81.82196 2876 ft 363 kts
2026-05-03 22:28 30.46982 -81.80792 2815 ft 324 kts 60°
2026-05-03 22:28 30.47598 -81.78309 2785 ft 335 kts 76°
2026-05-03 22:29 30.48117 -81.75692 2345 ft 325 kts 77°
2026-05-03 22:29 30.48699 -81.73186 1849 ft 315 kts 72°
2026-05-03 22:29 30.49398 -81.70631 1913 ft 361 kts 71°
2026-05-03 22:29 30.50241 -81.67826 2039 ft 369 kts 70°
2026-05-03 22:30 30.51105 -81.65116 2079 ft 345 kts 69°
2026-05-03 22:30 30.51905 -81.62527 2125 ft 340 kts 71°
2026-05-03 22:30 30.52676 -81.59888 2202 ft 346 kts 71°
2026-05-03 22:30 30.53458 -81.57207 2238 ft 357 kts 71°
2026-05-03 22:31 30.54258 -81.54434 2289 ft 365 kts 71°
2026-05-03 22:31 30.55058 -81.51642 2297 ft 357 kts 71°
2026-05-03 22:31 30.55812 -81.48936 2289 ft 349 kts 71°
2026-05-03 22:31 30.56541 -81.46272 2539 ft 345 kts 72°
2026-05-03 22:32 30.57262 -81.43528 2586 ft 371 kts 72°
2026-05-03 22:32 30.58027 -81.40660 2549 ft 373 kts 73°
2026-05-03 22:32 30.58773 -81.37770 2477 ft 373 kts 73°
2026-05-03 22:32 30.59462 -81.34983 2452 ft 348 kts 73°
2026-05-03 22:33 30.60097 -81.32322 2502 ft 336 kts 75°
2026-05-03 22:33 30.60754 -81.29425 2573 ft 337 kts 75°
2026-05-03 22:33 30.61271 -81.27038 2611 ft 346 kts 75°
2026-05-03 22:33 30.61864 -81.24274 2584 ft 364 kts 76°
2026-05-03 22:34 30.62470 -81.21360 2603 ft 381 kts 77°
2026-05-03 22:34 30.63074 -81.18307 2595 ft 392 kts 77°
2026-05-03 22:34 30.63778 -81.15277 2692 ft 381 kts 63°
2026-05-03 22:34 30.65593 -81.13046 2758 ft 391 kts 30°
2026-05-03 22:35 30.68168 -81.12305 2579 ft 377 kts 358°
2026-05-03 22:35 30.70558 -81.13375 2562 ft 364 kts 320°
2026-05-03 22:35 30.72015 -81.15639 2465 ft 364 kts 292°
2026-05-03 22:35 30.72365 -81.18747 2426 ft 419 kts 268°
2026-05-03 22:36 30.71397 -81.21824 2297 ft 387 kts 248°
2026-05-03 22:36 30.70352 -81.24885 2314 ft 418 kts 249°
2026-05-03 22:36 30.69369 -81.28005 2412 ft 412 kts 250°
2026-05-03 22:36 30.68394 -81.31156 2457 ft 423 kts 250°
2026-05-03 22:37 30.67451 -81.34274 2486 ft 394 kts 250°
2026-05-03 22:37 30.66573 -81.37226 2496 ft 378 kts 251°
2026-05-03 22:37 30.65764 -81.40076 2479 ft 364 kts 252°
2026-05-03 22:37 30.65003 -81.42906 2467 ft 379 kts 253°
2026-05-03 22:38 30.64207 -81.45861 2494 ft 383 kts 253°
2026-05-03 22:38 30.63445 -81.48771 2516 ft 376 kts 253°
2026-05-03 22:38 30.62722 -81.51642 2531 ft 370 kts 255°
2026-05-03 22:38 30.62049 -81.54482 2493 ft 366 kts 256°
2026-05-03 22:39 30.61403 -81.57361 2061 ft 371 kts 256°
2026-05-03 22:39 30.60566 -81.60197 1869 ft 373 kts 247°
2026-05-03 22:39 30.59445 -81.62885 1764 ft 366 kts 243°
2026-05-03 22:39 30.58293 -81.65497 1700 ft 371 kts 243°
2026-05-03 22:40 30.57235 -81.68173 1637 ft 363 kts 247°
2026-05-03 22:40 30.56424 -81.70930 1548 ft 359 kts 253°
2026-05-03 22:40 30.55827 -81.73709 1506 ft 360 kts 257°
2026-05-03 22:40 30.55252 -81.76633 1460 ft 377 kts 257°
2026-05-03 22:41 30.54628 -81.79561 1457 ft 377 kts 248°
2026-05-03 22:41 30.53080 -81.81941 1563 ft 374 kts 215°
2026-05-03 22:41 30.50687 -81.82849 1713 ft 366 kts 178°
2026-05-03 22:41 30.48414 -81.81717 1908 ft 360 kts 133°
2026-05-03 22:42 30.47319 -81.79223 1803 ft 348 kts 97°
2026-05-03 22:42 30.47581 -81.76447 1565 ft 354 kts 70°
2026-05-03 22:42 30.48424 -81.73761 1530 ft 357 kts 70°
2026-05-03 22:42 30.49266 -81.71056 1501 ft 351 kts 71°
2026-05-03 22:43 30.50303 -81.68636 1662 ft 354 kts 23°
2026-05-03 22:43 30.52162 -81.69770 1501 ft 317 kts 281°
2026-05-03 22:43 30.51740 -81.72058 1477 ft 274 kts 251°
2026-05-03 22:43 30.50794 -81.73569 1451 ft 223 kts 192°
2026-05-03 22:44 30.49339 -81.72766 1148 ft 263 kts 120°
2026-05-03 22:44 30.49242 -81.71171 397 ft 182 kts 69°
2026-05-03 22:44 30.49645 -81.69922 67 ft 145 kts 71°
2026-05-03 22:44 30.50218 -81.68045 310 ft 375 kts 71°
2026-05-03 22:45 30.51695 -81.66124 2136 ft 350 kts 343°
2026-05-03 22:45 30.52329 -81.68708 1975 ft 359 kts 255°
2026-05-03 22:45 30.51637 -81.71297 2036 ft 314 kts 252°
2026-05-03 22:45 30.50943 -81.73477 1846 ft 245 kts 224°
2026-05-03 22:46 30.49441 -81.73637 1332 ft 254 kts 139°
2026-05-03 22:46 30.48984 -81.71968 502 ft 198 kts 72°
2026-05-03 22:46 30.49427 -81.70616 145 ft 159 kts 71°
2026-05-03 22:46 30.49742 -81.69590 41 ft 107 kts 71°
2026-05-03 22:47 30.49930 -81.68973 37 ft 63 kts 70°
2026-05-03 22:47 30.50031 -81.68601 36 ft 29 kts 88°
2026-05-03 22:47 30.49977 -81.68465 36 ft 0 kts 149°
2026-05-03 22:47 30.49959 -81.68453 35 ft 9 kts 160°
2026-05-03 22:48 30.49903 -81.68505 35 ft 13 kts 251°
2026-05-03 22:48 30.49873 -81.68607 36 ft 14 kts 251°
2026-05-03 22:48 30.49839 -81.68719 36 ft 15 kts 251°
2026-05-03 22:48 30.49804 -81.68834 38 ft 15 kts 250°
2026-05-03 22:49 30.49769 -81.68949 39 ft 16 kts 250°
2026-05-03 22:49 30.49727 -81.69084 38 ft 19 kts 250°
2026-05-03 22:49 30.49680 -81.69228 40 ft 19 kts 249°
2026-05-03 22:49 30.49635 -81.69376 40 ft 20 kts 250°
2026-05-03 22:50 30.49584 -81.69540 38 ft 23 kts 251°
2026-05-03 22:50 30.49531 -81.69721 35 ft 25 kts 251°
2026-05-03 22:50 30.49466 -81.69904 32 ft 22 kts 222°
2026-05-03 22:50 30.49338 -81.69950 34 ft 19 kts 215°
2026-05-03 22:51 30.49234 -81.70049 34 ft 20 kts 219°
2026-05-03 22:51 30.49122 -81.70136 39 ft 19 kts 206°
2026-05-03 22:51 30.49003 -81.70201 39 ft 20 kts 204°
2026-05-03 22:51 30.48889 -81.70254 40 ft 15 kts 159°
2026-05-03 22:52 30.48873 -81.70174 39 ft 7 kts 40°
2026-05-03 22:52 30.48876 -81.70170 39 ft 0 kts 40°